AC4ZO Weather Reports


Display with metric or nautical units.
time (UTC)temp
F
wind
direction
speed
MPH
gust
MPH
rain 1hr
in
rain 24hr
in
rain mn
in
humidity
%
barometer
mb
20190221153043 42 252 0.0 0.0 0.00 0.24 0.10 99 1019.9
20190221151547 42 252 0.0 0.0 0.01 0.24 0.10 98 1020.3
20190221150033 42 272 0.0 0.0 0.01 0.24 0.10 98 1020.8
20190221144522 41 245 0.0 0.0 0.01 0.25 0.10 98 1020.8
20190221143015 41 270 0.0 0.0 0.01 0.25 0.10 98 1020.8
20190221141522 41 262 0.0 1.0 0.01 0.24 0.09 98 1020.7
20190221140016 41 270 0.0 3.0 0.01 0.24 0.09 98 1020.6
20190221134517 41 254 0.0 0.0 0.01 0.25 0.09 98 1020.3
20190221133035 41 242 0.0 0.0 0.01 0.25 0.09 99 1019.6
20190221131513 41 252 0.0 0.0 0.00 0.24 0.08 99 1019.7
20190221130023 41 211 0.0 0.0 0.01 0.24 0.08 99 1019.1
20190221124505 40 238 0.0 0.0 0.01 0.25 0.08 98 1018.8
20190221123008 39 168 0.0 0.0 0.01 0.25 0.08 98 1018.3
20190221120221 39 250 0.0 0.0 0.01 0.24 0.07 98 1018.5
20190221114830 38 161 0.0 0.0 0.01 0.25 0.07 98 1018.2
20190221113120 38 217 0.0 0.0 0.01 0.25 0.07 98 1018.4
20190221111723 38 263 0.0 0.0 0.01 0.25 0.07 98 1018.2
20190221110138 38 245 0.0 0.0 0.00 0.24 0.06 98 1018.3
20190221104652 38 246 0.0 0.0 0.01 0.25 0.06 98 1018.4
20190221103234 38 252 0.0 0.0 0.01 0.25 0.06 98 1018.4
20190221101626 38 261 0.0 0.0 0.01 0.25 0.06 98 1018.1
20190221100205 38 275 0.0 0.0 0.02 0.25 0.06 98 1017.9
20190221094724 38 179 0.0 0.0 0.01 0.25 0.05 98 1017.6
20190221093107 38 154 0.0 0.0 0.01 0.25 0.05 98 1017.5
20190221091651 37 157 0.0 0.0 0.01 0.25 0.05 98 1017.5
20190221090124 37 249 0.0 0.0 0.00 0.24 0.04 98 1017.9
20190221084642 37 240 0.0 0.0 0.01 0.26 0.04 98 1017.9
20190221083151 37 162 0.0 0.0 0.01 0.26 0.04 98 1018.2
20190221081559 36 140 0.0 0.0 0.01 0.26 0.04 98 1018.2
20190221080141 36 139 0.0 0.0 0.01 0.25 0.03 98 1018.8
20190221074617 36 232 0.0 1.0 0.01 0.26 0.03 98 1019.6
20190221073052 36 268 0.0 0.0 0.01 0.26 0.03 98 1020.7
20190221071551 36 266 0.0 0.0 0.01 0.26 0.03 98 1019.8
20190221070138 36 234 0.0 0.0 0.01 0.25 0.02 98 1019.6
20190221064601 36 234 0.0 0.0 0.01 0.26 0.02 98 1019.4
20190221063115 36 234 0.0 0.0 0.01 0.26 0.02 98 1019.6
20190221061634 36 249 0.0 0.0 0.02 0.26 0.02 98 1020.0
20190221060100 36 264 0.0 2.0 0.01 0.25 0.01 98 1019.9
20190221054544 35 257 0.0 0.0 0.01 0.27 0.01 97 1019.4
20190221053030 35 257 0.0 0.0 0.01 0.27 0.01 97 1019.5
20190221051537 35 257 0.0 1.0 0.01 0.26 0.00 97 1019.8
20190221050021 36 271 0.0 9.0 0.01 0.26 0.00 97 1020.5
20190221044522 36 246 0.0 4.0 0.01 0.28 0.26 97 1020.2
20190221043045 36 328 0.0 0.0 0.01 0.27 0.25 97 1019.9
20190221041518 36 292 0.0 0.0 0.01 0.27 0.25 98 1019.6
20190221040033 36 75 0.0 0.0 0.01 0.27 0.25 97 1017.9
20190221034516 36 210 0.0 0.0 0.02 0.28 0.25 97 1018.3
20190221033033 35 210 0.0 0.0 0.01 0.28 0.24 97 1018.8
20190221031521 35 210 0.0 0.0 0.01 0.28 0.24 97 1019.5
20190221030013 35 96 0.0 0.0 0.02 0.28 0.24 97 1019.2
20190221024509 35 147 0.0 6.0 0.01 0.28 0.23 97 1019.2
20190221023030 35 155 0.0 0.0 0.01 0.28 0.23 97 1019.7
20190221020141 35 344 0.0 0.0 0.01 0.27 0.22 97 1022.6
20190221014647 35 286 0.0 0.0 0.01 0.28 0.22 97 1023.2
20190221013151 35 5 1.0 11.0 0.02 0.28 0.22 97 1023.1
20190221011702 35 316 0.0 1.0 0.01 0.28 0.21 97 1022.8
20190221010215 35 315 0.0 0.0 0.01 0.28 0.21 97 1023.2
20190221004615 36 345 0.0 0.0 0.01 0.28 0.21 97 1023.2
20190221003148 36 355 0.0 0.0 0.00 0.27 0.20 96 1022.7
20190221001641 36 282 0.0 6.0 0.01 0.27 0.20 96 1022.9
20190221000210 36 311 0.0 0.0 0.01 0.27 0.20 96 1022.8
20190220234706 36 53 0.0 1.0 0.01 0.27 0.20 96 1022.7
20190220233202 37 341 0.0 0.0 0.01 0.27 0.20 96 1022.5
20190220231822 37 15 0.0 2.0 0.00 0.26 0.19 96 1022.7
20190220230139 37 22 0.0 0.0 0.01 0.26 0.19 96 1022.4
20190220224636 37 24 0.0 0.0 0.01 0.26 0.19 96 1022.5
20190220223130 37 39 0.0 0.0 0.01 0.26 0.19 96 1022.7
20190220221608 37 319 0.0 0.0 0.01 0.26 0.19 96 1023.0
20190220220149 37 355 0.0 0.0 0.00 0.25 0.18 96 1023.1
20190220214601 37 344 0.0 2.0 0.01 0.25 0.18 96 1023.2
20190220213145 38 22 0.0 1.0 0.01 0.25 0.18 96 1023.2
20190220211618 38 37 0.0 0.0 0.01 0.25 0.18 96 1022.8
20190220210126 38 336 0.0 0.0 0.01 0.25 0.18 96 1023.1
20190220204606 38 27 0.0 0.0 0.00 0.24 0.17 96 1023.1
20190220203154 38 51 0.0 1.0 0.01 0.24 0.17 97 1023.4
20190220201600 38 12 0.0 4.0 0.01 0.24 0.17 96 1023.6
20190220200111 38 67 0.0 4.0 0.01 0.24 0.17 96 1023.9
20190220194543 37 25 0.0 4.0 0.01 0.24 0.17 96 1023.9
20190220193142 37 40 0.0 0.0 0.00 0.23 0.16 96 1023.8
20190220191549 37 33 0.0 0.0 0.00 0.23 0.16 96 1024.2
20190220190038 37 40 0.0 0.0 0.01 0.23 0.16 96 1024.7
20190220184626 37 360 0.0 0.0 0.01 0.23 0.16 96 1024.7
20190220183032 37 340 0.0 2.0 0.01 0.23 0.16 96 1024.9
20190220181550 37 37 0.0 0.0 0.01 0.23 0.16 97 1024.7
20190220180038 37 41 0.0 0.0 0.01 0.22 0.15 97 1025.0
20190220174608 36 14 0.0 0.0 0.01 0.22 0.15 96 1025.2
20190220173054 36 86 0.0 0.0 0.01 0.22 0.15 97 1025.2
20190220171525 36 19 0.0 0.0 0.01 0.22 0.15 96 1026.2
20190220170100 35 14 0.0 0.0 0.01 0.21 0.14 96 1026.7
20190220164534 35 57 0.0 0.0 0.01 0.21 0.14 96 1027.1
20190220163034 35 21 0.0 3.0 0.01 0.21 0.14 96 1027.2
20190220161510 35 33 0.0 0.0 0.02 0.21 0.14 96 1027.7
20190220160021 34 80 1.0 6.0 0.01 0.20 0.13 96 1027.4
20190220154510 34 86 0.0 11.0 0.01 0.20 0.13 96 1027.7